Regional Weather Roundup
Issued by NWS

Home | Current Version | Previous Version | Graphics & Text | Print | Product List | Glossary On
Versions: 1 2 3 4 5 6 7 8 9 10 11 12 13 14 15 16 17 18 19 20 21 22 23 24 25 26 27 28 29 30 31 32 33 34 35 36 37 38 39 40 41 42 43 44
000
ASUS43 KMKX 231500
RWRWI

WISCONSIN REGIONAL WEATHER ROUNDUP
NATIONAL WEATHER SERVICE MILWAUKEE/SULLIVAN WI
1000 AM CDT TUE AUG 23 2016

NOTE: "FAIR" INDICATES FEW OR NO CLOUDS BELOW 12,000 FEET WITH NO
SIGNIFICANT WEATHER AND/OR OBSTRUCTIONS TO VISIBILITY.

WIZ001-002-006>008-014>016-023>028-231600-
NORTHWEST WISCONSIN

CITY           SKY/WX    TMP DP  RH WIND       PRES   REMARKS
SUPERIOR ARPT  SUNNY     74  64  69 SW14G20   29.90S
ASHLAND        SUNNY     75  63  66 S16G23    29.94F
HAYWARD        SUNNY     73  61  65 S13       29.98S
SIREN          SUNNY     74  60  61 S14G20    29.94S
CUMBERLAND     SUNNY     70  61  73 S12       29.99S
RICE LAKE      SUNNY     72  61  68 S14       30.01S
CHETEK         NOT AVBL
LADYSMITH      SUNNY     71  62  73 S9        30.04F
EAU CLAIRE     NOT AVBL
MENOMONIE      SUNNY     74  62  66 S13       30.01F
NEW RICHMOND   SUNNY     73  60  63 S14G20    29.97F
OSCEOLA        SUNNY     73  62  68 S13G21    29.98F
$$

WIZ003>005-009-010-017-018-231600-
NORTH CENTRAL WISCONSIN

CITY           SKY/WX    TMP DP  RH WIND       PRES   REMARKS
MANITOWISH WTR NOT AVBL
ARBOR VITAE    SUNNY     72  64  76 S13G18    30.06R
WOODRUFF       SUNNY     72  64  76 S13G18    30.06R
RHINELANDER    SUNNY     71  62  73 SW9       30.09S
EAGLE RIVER    SUNNY     70  58  66 SW10G20   30.07R
LAND O LAKES   SUNNY     71  61  70 SW7       30.07S
PHILLIPS       SUNNY     71  63  75 S9        30.04S
TOMAHAWK       SUNNY     70  61  74 CALM      30.08S
MEDFORD        SUNNY     69  63  82 S10G16    30.08S
MERRILL        SUNNY     71  62  73 SW9       30.09F
$$

WIZ029-030-035-036-043>047-231600-
CENTRAL WISCONSIN

CITY           SKY/WX    TMP DP  RH WIND       PRES   REMARKS
WAUSAU         SUNNY     71  61  70 S10       30.09S
MOSINEE        NOT AVBL
MARSHFIELD     SUNNY     73  61  65 SW13G22   30.09S
STEVENS POINT  SUNNY     69  60  71 SW9       30.12S
WAUPACA        SUNNY     73  62  68 S7        30.13S
WAUTOMA        SUNNY     73  61  65 S8        30.14R
WISC RAPIDS    SUNNY     73  62  68 SW13      30.13R
CAMP DOUGLAS   NOT AVBL
$$

WIZ011>013-019>022-031-037>040-048>050-231600-
NORTHEAST WISCONSIN

CITY           SKY/WX    TMP DP  RH WIND       PRES   REMARKS
ANTIGO         SUNNY     70  62  75 SW9       30.11S
SHAWANO        SUNNY     73  62  68 SW5       30.12S
OCONTO         NOT AVBL
STURGEON BAY   SUNNY     74  61  63 SW13G21   30.13S
GREEN BAY      SUNNY     73  63  70 S12G20    30.13S
MANITOWOC      NOT AVBL
APPLETON       MOSUNNY   72  57  60 SW12      30.14
CLINTONVILLE   SUNNY     73  59  60 S14       30.12S
OSHKOSH        SUNNY     73  61  65 S12       30.14S
$$

WIZ032>034-041-042-053>061-231600-
SOUTHWEST WISCONSIN

CITY           SKY/WX    TMP DP  RH WIND       PRES   REMARKS
LA CROSSE      SUNNY     74  68  81 S16       30.06F
SPARTA         SUNNY     73  62  68 S9        30.10S
VIROQUA        SUNNY     73  62  68 S9        30.11F
BOSCOBEL       MOSUNNY   76  62  62 S8        30.12S
PRAIRIE DU CHI MOSUNNY   72  60  65 CALM      30.10F
PLATTEVILLE    SUNNY     70  65  83 S12       30.16R
$$

WIZ056-057-062-063-064-067-068-231600-
SOUTH CENTRAL WISCONSIN

CITY           SKY/WX    TMP DP  RH WIND       PRES   REMARKS
REEDSBURG      NOT AVBL
BARABOO/DELLS  SUNNY     72  60  65 S9        30.14R
LONE ROCK      NOT AVBL
MINERAL POINT  MOSUNNY   72  63  73 S8        30.16R
MADISON        MOSUNNY   72  60  66 S12       30.15S
MIDDLETON      SUNNY     72  62  68 S8        30.16S
WATERTOWN      SUNNY     71  62  73 S12       30.16S
MONROE         SUNNY     70  61  73 S12       30.17S
JANESVILLE     MOSUNNY   75  63  64 S12       30.18R
$$

WIZ051-052-058>065-066-070>072-231600-
SOUTHEAST WISCONSIN

CITY           SKY/WX    TMP DP  RH WIND       PRES   REMARKS
MILWAUKEE      MOSUNNY   78  60  53 S14       30.19S
WAUKESHA       SUNNY     72  61  68 S7        30.20R
MILWAUKEE/TIMM SUNNY     73  55  53 S13G20    30.20R
RACINE         SUNNY     75  60  59 SW12G21   30.21S
BURLINGTON     SUNNY     71  60  67 S12       30.20R
KENOSHA        SUNNY     76  60  57 SW15G23   30.21R
FOND DU LAC    SUNNY     74  61  63 SW10      30.16R
SHEBOYGAN      SUNNY     74  59  59 S13       30.17S
WEST BEND      SUNNY     72  59  64 SW8       30.18S
JUNEAU         SUNNY     70  60  70 S10       30.18S
$$

LSZ147-162-231600-
LAKE SUPERIOR

STATION/POSITION TIME  TEMP    WIND        PRES    WAVE
                       AIR SEA DIR/SP/G            HT/PER
                 (UTC) (F)     (DEG/KT/KT) (MB)    (FT/S)
W MID LAKE BUOY  1350   69 66  210/ 12/ 14 1013.2S   2/ 5
DEVILS ISLAND    1400   70     180/  6/  9 1013.3F
SAXON HARBOR     1400   73     200/ 11/ 19 1013.5S
$$

LMZ867-665-643>646-231600-
LAKE MICHIGAN

STATION/POSITION TIME  TEMP    WIND        PRES    WAVE
                       AIR SEA DIR/SP/G            HT/PER
                 (UTC) (F)     (DEG/KT/KT) (MB)    (FT/S)
CHAMBERS ISLAND  1400   70     190/  7/ 13 1019.6S
S GREEN BAY BUOY 1400   70 73  190/ 17/ 21 1019.4R
N MID LAKE BUOY  1350   72 71  210/ 21/ 25 1018.6R   6/ 6
NORTHPORT PIER   1400   72     170/  5/ 10 1019.3S
SISTER BAY       1407   75     230/ 13/ 16   N/A
KEWAUNEE LAKESHO 1400   65     180/  9/ 11 1020.3R
SHEBOYGAN LAKESH 1400   65     170/ 12/ 13 1021.6R
PORT WASHINGTON  1400   66     180/  5/  7 1022.4
ATWATER BUOY     1400   67 63  170/  8/ 12   N/A
MILWAUKEE LAKESH 1410   71     210/ 12/ 13   N/A
S MID LAKE BUOY  1350   73 74  190/ 16/ 17 1022.2R   3/ 4
KENOSHA   LAKESH 1400   72     210/ 10/ 17 1022.4R
$$

TC  - TEMPERATURE IN CELSIUS
VSB - VISIBILITY IN STATUTE MILES
WCI - WIND CHILL INDEX
HX  - HEAT INDEX





USA.gov is the U.S. government's official web portal to all federal, state and local government web resources and services.